CW1490 Weather Reports


Display with metric or nautical units.
time (UTC)temp
F
wind
direction
speed
MPH
gust
MPH
rain 1hr
in
rain 24hr
in
rain mn
in
humidity
%
barometer
mb
20160630153231 80 16 3.0 8.0 0.00 0.00 0.00 53 1014.3
20160630151728 76 320 2.0 6.0 0.00 0.00 0.00 59 1014.4
20160630150228 77 82 2.0 6.0 0.00 0.00 0.00 53 1014.3
20160630144727 77 107 1.0 12.0 0.00 0.00 0.00 62 1014.3
20160630143230 77 45 3.0 8.0 0.00 0.00 0.00 59 1014.1
20160630141723 77 111 3.0 10.0 0.00 0.00 0.00 60 1014.3
20160630140220 76 171 2.0 5.0 0.00 0.00 0.00 67 1014.4
20160630134714 74 104 1.0 4.0 0.00 0.00 0.00 73 1014.6
20160630133209 73 130 1.0 3.0 0.00 0.00 0.00 77 1014.5
20160630131703 71 36 0.0 3.0 0.00 0.00 0.00 81 1014.6
20160630130201 69 37 0.0 0.0 0.00 0.00 0.00 84 1014.6
20160630124706 66 37 1.0 2.0 0.00 0.00 0.00 96 1014.6
20160630123158 63 37 1.0 3.0 0.00 0.00 0.00 97 1014.8
20160630121648 62 37 2.0 3.0 0.00 0.00 0.00 97 1014.7
20160630120247 61 36 1.0 4.0 0.00 0.00 0.00 97 1014.6
20160630114650 61 39 0.0 1.0 0.00 0.00 0.00 97 1014.6
20160630113148 60 39 0.0 3.0 0.00 0.00 0.00 97 1014.6
20160630111644 60 38 0.0 3.0 0.00 0.00 0.00 97 1014.4
20160630110158 60 355 0.0 2.0 0.00 0.00 0.00 97 1014.3
20160630104637 60 317 0.0 0.0 0.00 0.00 0.00 97 1014.2
20160630103137 59 317 0.0 2.0 0.00 0.00 0.00 97 1014.1
20160630101634 59 317 0.0 2.0 0.00 0.00 0.00 97 1014.0
20160630100141 59 317 0.0 1.0 0.00 0.00 0.00 97 1013.9
20160630094641 59 317 0.0 1.0 0.00 0.00 0.00 97 1013.7
20160630093126 59 317 0.0 2.0 0.00 0.00 0.00 97 1013.6
20160630091625 59 317 1.0 2.0 0.00 0.00 0.00 97 1013.5
20160630090122 59 317 0.0 0.0 0.00 0.00 0.00 97 1013.4
20160630084625 59 317 0.0 2.0 0.00 0.00 0.00 97 1013.3
20160630083120 59 317 0.0 0.0 0.00 0.00 0.00 96 1013.1
20160630081622 59 317 0.0 2.0 0.00 0.00 0.00 96 1013.0
20160630080118 60 317 0.0 0.0 0.00 0.01 0.00 96 1012.8
20160630074618 60 317 0.0 0.0 0.00 0.01 0.00 96 1012.7
20160630073114 60 317 0.0 1.0 0.00 0.01 0.00 96 1012.7
20160630071614 60 317 0.0 2.0 0.00 0.01 0.00 96 1012.5
20160630070114 59 305 0.0 1.0 0.00 0.02 0.00 96 1012.6
20160630064614 59 305 1.0 2.0 0.00 0.02 0.00 96 1012.4
20160630063111 59 305 0.0 0.0 0.00 0.02 0.00 96 1012.5
20160630061611 59 305 0.0 0.0 0.00 0.02 0.00 96 1012.5
20160630060107 60 305 0.0 1.0 0.00 0.03 0.00 95 1012.5
20160630054906 60 305 0.0 1.0 0.00 0.03 0.00 95 1012.5
20160630053107 60 305 1.0 2.0 0.00 0.03 0.00 95 1012.5
20160630051605 61 305 0.0 0.0 0.00 0.03 0.00 95 1012.4
20160630050102 61 305 0.0 0.0 0.00 0.07 0.00 95 1012.4
20160630044604 61 305 0.0 0.0 0.00 0.07 0.00 95 1012.4
20160630043102 61 305 0.0 0.0 0.00 0.07 0.00 94 1012.4
20160630041705 62 305 0.0 3.0 0.00 0.07 0.00 94 1012.3
20160630040055 62 290 0.0 1.0 0.00 0.46 0.07 94 1012.2
20160630034555 62 290 0.0 1.0 0.00 0.46 0.07 94 1012.0
20160630033051 63 290 0.0 3.0 0.00 0.46 0.07 93 1012.0
20160630031549 63 21 0.0 0.0 0.00 0.46 0.07 93 1012.0
20160630030049 63 21 0.0 3.0 0.00 0.46 0.07 93 1012.0
20160630024544 64 255 0.0 0.0 0.00 0.46 0.07 91 1011.8
20160630023047 64 255 0.0 0.0 0.00 0.46 0.07 91 1011.7
20160630021541 65 255 0.0 2.0 0.00 0.46 0.07 92 1011.7
20160630020040 65 255 0.0 0.0 0.00 0.46 0.07 90 1011.5
20160630014537 65 255 0.0 0.0 0.00 0.46 0.07 90 1011.3
20160630013038 65 255 0.0 6.0 0.00 0.46 0.07 89 1011.0
20160630011535 66 282 0.0 2.0 0.00 0.46 0.07 88 1010.8
20160630010033 67 282 1.0 2.0 0.00 0.46 0.07 88 1010.6
20160630004534 68 282 0.0 3.0 0.00 0.46 0.07 87 1010.4
20160630003033 69 282 0.0 2.0 0.00 0.46 0.07 84 1010.2
20160630001532 70 282 1.0 3.0 0.00 0.46 0.07 81 1010.0
20160630000034 71 282 1.0 3.0 0.00 0.46 0.07 77 1010.0
20160629234531 73 284 1.0 3.0 0.00 0.46 0.07 71 1009.9
20160629233033 74 284 1.0 2.0 0.00 0.46 0.07 69 1009.9
20160629231532 76 284 0.0 2.0 0.00 0.46 0.07 64 1009.8
20160629225959 77 286 0.0 3.0 0.00 0.46 0.07 56 1009.8
20160629224439 79 303 2.0 4.0 0.00 0.46 0.07 51 1009.7
20160629223225 79 234 1.0 5.0 0.00 0.46 0.07 49 1009.6
20160629221523 80 309 1.0 5.0 0.00 0.46 0.07 50 1009.5
20160629220023 81 197 1.0 4.0 0.00 0.46 0.07 50 1009.3
20160629214522 81 350 2.0 5.0 0.00 0.46 0.07 53 1009.3
20160629213022 80 97 1.0 3.0 0.00 0.46 0.07 52 1009.2
20160629211522 80 215 1.0 6.0 0.00 0.46 0.07 54 1009.1
20160629210022 82 301 1.0 9.0 0.00 0.46 0.07 51 1009.1
20160629204520 83 230 1.0 10.0 0.00 0.46 0.07 52 1009.0
20160629203023 83 255 1.0 8.0 0.00 0.46 0.07 50 1008.9
20160629201520 83 271 3.0 9.0 0.00 0.46 0.07 49 1008.8
20160629200018 83 230 1.0 8.0 0.00 0.46 0.07 50 1008.9
20160629194525 83 258 9.0 14.0 0.00 0.46 0.07 47 1008.8
20160629193024 83 237 5.0 12.0 0.00 0.46 0.07 47 1008.8
20160629191516 83 258 4.0 9.0 0.00 0.46 0.07 50 1009.0
20160629190016 81 219 2.0 7.0 0.00 0.46 0.07 53 1008.9
20160629184513 82 258 3.0 9.0 0.00 0.46 0.07 54 1008.9
20160629183019 81 240 5.0 12.0 0.00 0.46 0.07 54 1009.0
20160629181515 81 18 2.0 6.0 0.00 0.46 0.07 52 1009.0
20160629174522 81 82 3.0 7.0 0.00 0.46 0.07 61 1008.9
20160629173004 81 328 2.0 8.0 0.00 0.46 0.07 62 1009.1
20160629171502 80 195 4.0 11.0 0.00 0.46 0.07 66 1009.2
20160629165959 78 261 1.0 10.0 0.00 0.46 0.07 68 1009.3
20160629164456 80 189 4.0 10.0 0.00 0.46 0.07 66 1009.4
20160629162954 78 214 2.0 9.0 0.00 0.46 0.07 80 1009.6
20160629161451 76 222 2.0 4.0 0.00 0.46 0.07 78 1009.7
20160629155951 75 291 2.0 6.0 0.00 0.46 0.07 82 1009.8